Total_Precipitation_Accumulation
1.01 0.91 0.82 0.81 0.80 0.75 0.71 0.65 0.60 0.58 0.54 0.54 0.50 0.42 0.40 0.41 0.36 0.32 0.31 0.30 0.33 0.49 0.68 0.82 0.88 0.87 0.87 0.89 0.84 0.83 0.76 0.72 0.69 0.71 0.70 0.67 0.61 0.57 0.56 0.57 0.57 0.57 0.59
1.32 1.21 1.12 1.03 0.98 0.91 0.88 0.82 0.77 0.76 0.71 0.65 0.61 0.52 0.46 0.46 0.48 0.45 0.42 0.38 0.35 0.39 0.56 0.76 0.93 1.02 1.03 1.04 0.99 0.90 0.82 0.73 0.69 0.74 0.74 0.71 0.68 0.66 0.64 0.59 0.56 0.57 0.61
1.44 1.40 1.37 1.35 1.29 1.20 1.11 1.07 1.03 0.98 0.89 0.78 0.71 0.66 0.61 0.56 0.55 0.57 0.57 0.51 0.46 0.42 0.51 0.71 0.88 1.04 1.10 1.13 1.15 1.09 0.98 0.86 0.78 0.74 0.76 0.72 0.67 0.67 0.68 0.66 0.62 0.58 0.58
1.57 1.49 1.40 1.32 1.34 1.43 1.43 1.34 1.24 1.17 1.03 0.91 0.81 0.73 0.64 0.61 0.59 0.60 0.64 0.65 0.62 0.52 0.47 0.58 0.71 0.89 1.01 1.14 1.24 1.34 1.33 1.14 0.98 0.88 0.82 0.76 0.70 0.65 0.62 0.61 0.61 0.60 0.57
1.77 1.70 1.55 1.45 1.46 1.39 1.41 1.43 1.36 1.24 1.17 1.10 1.00 0.89 0.77 0.67 0.62 0.60 0.59 0.61 0.64 0.59 0.54 0.54 0.60 0.70 0.84 1.03 1.20 1.41 1.56 1.44 1.22 1.06 0.93 0.85 0.80 0.74 0.69 0.67 0.64 0.60 0.61
1.93 1.86 1.69 1.64 1.69 1.60 1.47 1.36 1.35 1.30 1.20 1.21 1.18 1.07 0.97 0.88 0.81 0.71 0.64 0.62 0.62 0.60 0.59 0.54 0.54 0.57 0.68 0.84 1.09 1.31 1.43 1.53 1.48 1.34 1.17 1.04 0.95 0.90 0.87 0.86 0.82 0.76 0.72
2.08 2.05 1.87 1.76 1.75 1.67 1.54 1.49 1.42 1.41 1.37 1.33 1.41 1.33 1.18 1.08 1.01 0.92 0.81 0.74 0.71 0.70 0.67 0.64 0.61 0.59 0.58 0.67 0.84 1.05 1.17 1.31 1.42 1.44 1.40 1.33 1.22 1.12 1.07 1.05 1.02 0.97 0.92
2.08 2.09 2.05 1.96 1.86 1.80 1.74 1.70 1.69 1.63 1.57 1.57 1.62 1.65 1.51 1.35 1.11 0.95 0.92 0.85 0.77 0.76 0.74 0.69 0.63 0.60 0.58 0.60 0.69 0.80 0.92 1.08 1.26 1.38 1.42 1.41 1.39 1.37 1.36 1.35 1.31 1.24 1.16
2.08 2.02 2.04 2.10 2.05 1.95 1.81 1.76 1.73 1.72 1.69 1.66 1.67 1.79 1.63 1.34 1.08 0.95 0.86 0.82 0.80 0.79 0.77 0.77 0.76 0.71 0.67 0.64 0.65 0.71 0.77 0.87 1.06 1.30 1.46 1.51 1.50 1.53 1.57 1.64 1.68 1.63 1.50
2.09 2.07 2.05 2.08 2.08 2.01 1.87 1.83 1.77 1.71 1.73 1.70 1.67 1.59 1.49 1.26 1.16 1.06 0.92 0.83 0.81 0.81 0.84 0.84 0.84 0.84 0.82 0.79 0.78 0.78 0.77 0.80 0.99 1.24 1.50 1.69 1.79 1.81 1.81 1.83 1.87 1.87 1.79
2.09 2.04 2.02 2.05 1.98 1.93 1.89 1.92 1.88 1.85 1.80 1.73 1.64 1.57 1.57 1.40 1.22 1.17 1.05 0.90 0.89 0.86 0.90 0.95 0.94 0.93 0.91 0.87 0.80 0.81 0.87 0.90 1.09 1.32 1.57 1.77 1.93 2.06 2.15 2.16 2.15 2.12 2.07
2.13 2.05 1.96 1.92 1.90 1.91 1.92 1.94 1.98 1.94 1.92 1.88 1.78 1.65 1.65 1.61 1.42 1.35 1.28 1.08 1.01 0.95 0.90 0.94 0.97 0.96 0.94 0.90 0.87 0.93 0.86 0.88 0.97 1.15 1.47 1.73 1.86 1.98 2.17 2.31 2.33 2.26 2.21
1.91 1.88 1.90 1.84 1.79 1.74 1.79 1.86 1.95 1.95 1.91 1.90 1.85 1.76 1.70 1.62 1.50 1.49 1.47 1.32 1.21 1.10 1.04 1.01 0.97 0.96 0.96 0.95 0.95 1.03 0.92 0.93 0.97 1.07 1.31 1.55 1.64 1.70 1.82 2.06 2.30 2.41 2.47
1.83 1.82 1.81 1.82 1.81 1.78 1.75 1.79 1.84 1.88 1.88 1.83 1.72 1.67 1.64 1.57 1.56 1.58 1.56 1.60 1.58 1.37 1.18 1.05 0.97 0.97 0.99 1.01 1.10 1.22 1.07 1.18 1.17 1.22 1.35 1.49 1.49 1.46 1.51 1.63 1.85 2.05 2.20
1.69 1.70 1.69 1.70 1.73 1.74 1.73 1.75 1.80 1.77 1.78 1.76 1.70 1.62 1.53 1.42 1.42 1.44 1.47 1.55 1.72 1.67 1.39 1.09 1.01 1.06 1.12 1.16 1.28 1.21 1.13 1.35 1.36 1.35 1.39 1.43 1.43 1.35 1.34 1.42 1.49 1.56 1.63
1.51 1.52 1.52 1.52 1.54 1.57 1.59 1.64 1.65 1.61 1.61 1.59 1.58 1.59 1.54 1.42 1.40 1.43 1.49 1.55 1.64 1.70 1.55 1.14 1.00 1.02 1.16 1.26 1.43 1.31 1.21 1.42 1.40 1.36 1.36 1.33 1.29 1.23 1.19 1.21 1.29 1.38 1.40
1.33 1.33 1.33 1.34 1.33 1.36 1.40 1.45 1.45 1.46 1.51 1.50 1.49 1.52 1.53 1.49 1.49 1.49 1.55 1.61 1.68 1.75 1.73 1.36 1.13 1.09 1.18 1.22 1.26 1.21 1.17 1.19 1.19 1.33 1.26 1.19 1.15 1.12 1.08 1.04 1.06 1.14 1.22
1.22 1.24 1.25 1.23 1.20 1.17 1.21 1.26 1.29 1.31 1.34 1.38 1.42 1.47 1.50 1.51 1.55 1.56 1.61 1.64 1.64 1.64 1.64 1.51 1.27 1.13 1.09 1.07 1.08 1.08 1.06 1.03 0.99 1.16 1.16 1.10 1.05 1.06 1.05 1.01 0.97 0.98 1.06
1.12 1.15 1.18 1.15 1.15 1.13 1.14 1.15 1.15 1.17 1.20 1.23 1.26 1.32 1.34 1.40 1.46 1.48 1.54 1.58 1.55 1.53 1.51 1.43 1.22 1.05 0.99 0.99 1.05 1.06 1.02 0.97 0.90 0.98 1.02 1.02 0.98 0.99 1.02 0.97 0.94 0.91 0.88
0.94 1.01 1.09 1.08 1.06 1.08 1.11 1.14 1.16 1.15 1.14 1.14 1.15 1.21 1.25 1.29 1.31 1.35 1.45 1.49 1.47 1.47 1.48 1.46 1.34 1.14 1.00 0.94 0.97 1.01 1.00 0.94 0.87 0.82 0.96 0.97 0.98 0.97 0.96 0.88 0.80 0.77 0.75
0.74 0.78 0.88 0.96 0.99 1.00 1.04 1.07 1.09 1.12 1.12 1.13 1.14 1.19 1.26 1.41 1.43 1.36 1.34 1.32 1.32 1.38 1.42 1.42 1.31 1.16 1.01 0.93 0.92 0.86 0.88 0.92 0.93 0.86 0.88 0.89 0.88 0.88 0.91 0.93 0.90 0.81 0.79
0.66 0.69 0.77 0.81 0.88 0.94 1.16 1.16 1.06 1.04 1.11 1.15 1.17 1.15 1.19 1.32 1.32 1.31 1.27 1.25 1.27 1.33 1.37 1.32 1.18 1.01 0.84 0.72 0.73 0.81 0.88 0.99 1.04 0.85 0.84 0.90 0.86 0.89 0.87 0.86 0.94 0.90 0.86
0.68 0.72 0.76 0.81 0.86 1.00 1.21 1.20 1.23 1.10 1.11 1.14 1.14 1.12 1.07 1.04 1.10 0.98 1.04 1.14 1.17 1.18 1.12 1.05 1.02 0.87 0.76 0.69 0.78 0.92 0.94 0.93 0.84 0.71 0.81 0.99 0.94 0.93 0.84 0.86 0.94 0.88 0.89
0.83 0.90 0.94 0.97 1.02 1.12 1.21 1.15 1.14 1.03 1.05 1.05 1.00 0.97 0.93 0.87 0.86 0.88 0.90 0.96 0.90 0.87 0.87 0.80 0.76 0.72 0.71 0.75 0.85 0.97 1.03 1.08 0.98 0.88 0.89 1.02 0.92 0.87 0.80 0.81 0.91 0.86 0.85
1.14 1.11 1.08 1.04 1.03 1.05 1.08 1.02 0.98 0.90 0.93 0.91 0.85 0.83 0.82 0.78 0.88 0.97 0.90 0.85 0.79 0.79 0.84 0.86 0.87 0.86 0.92 0.98 1.02 1.10 1.21 1.33 1.23 0.96 0.82 0.83 0.78 0.74 0.74 0.77 0.81 0.88 0.85
1.12 1.10 1.08 1.03 0.96 0.92 0.91 0.85 0.82 0.76 0.76 0.74 0.70 0.69 0.76 0.76 0.89 0.97 0.87 0.84 0.79 0.68 0.67 0.75 0.78 0.79 0.77 0.82 0.96 0.95 1.04 1.31 1.21 0.96 0.64 0.67 0.72 0.81 1.01 0.78 0.70 0.74 0.80